QPF
0.00 0.00 0.00 0.00 0.00 0.00 0.00 0.00 0.00 0.00 0.00 0.00 0.00 0.00 0.00 0.00 0.00 0.00 0.00 0.00 0.00 0.00 0.00 0.00 0.00 0.00 0.00 0.00 0.00 0.00 0.00 0.00
0.00 0.00 0.00 0.00 0.00 0.00 0.00 0.00 0.00 0.00 0.00 0.00 0.00 0.00 0.00 0.00 0.00 0.00 0.00 0.00 0.00 0.00 0.00 0.00 0.00 0.00 0.00 0.00 0.00 0.00 0.00 0.00
0.00 0.00 0.00 0.00 0.00 0.00 0.00 0.00 0.00 0.00 0.00 0.00 0.00 0.00 0.00 0.00 0.00 0.00 0.00 0.00 0.00 0.00 0.00 0.00 0.00 0.00 0.00 0.00 0.00 0.00 0.00 0.00
0.00 0.00 0.00 0.00 0.00 0.00 0.00 0.00 0.00 0.00 0.00 0.00 0.00 0.00 0.00 0.00 0.00 0.00 0.00 0.00 0.00 0.00 0.00 0.00 0.00 0.00 0.00 0.00 0.00 0.00 0.00 0.00
0.00 0.00 0.00 0.00 0.00 0.00 0.00 0.00 0.00 0.00 0.00 0.00 0.00 0.00 0.00 0.00 0.00 0.00 0.00 0.00 0.00 0.00 0.00 0.00 0.00 0.00 0.00 0.00 0.00 0.00 0.00 0.00
0.00 0.00 0.00 0.00 0.00 0.00 0.00 0.00 0.00 0.00 0.00 0.00 0.00 0.00 0.00 0.00 0.00 0.00 0.00 0.00 0.00 0.00 0.00 0.00 0.00 0.00 0.00 0.00 0.00 0.00 0.00 0.00
0.00 0.00 0.00 0.00 0.00 0.00 0.00 0.00 0.00 0.00 0.00 0.00 0.00 0.00 0.00 0.00 0.00 0.00 0.00 0.00 0.00 0.00 0.00 0.00 0.00 0.00 0.00 0.00 0.00 0.00 0.00 0.00
0.00 0.00 0.00 0.00 0.00 0.00 0.00 0.00 0.00 0.00 0.00 0.00 0.00 0.00 0.00 0.00 0.00 0.00 0.00 0.00 0.00 0.00 0.00 0.00 0.00 0.00 0.00 0.00 0.00 0.00 0.00 0.00
0.00 0.00 0.00 0.00 0.00 0.00 0.00 0.00 0.00 0.00 0.00 0.00 0.00 0.00 0.00 0.00 0.00 0.00 0.00 0.00 0.00 0.00 0.00 0.00 0.00 0.00 0.00 0.00 0.00 0.00 0.00 0.00
0.00 0.00 0.00 0.00 0.00 0.00 0.00 0.00 0.00 0.00 0.00 0.00 0.00 0.00 0.00 0.00 0.00 0.00 0.00 0.00 0.00 0.00 0.00 0.00 0.00 0.00 0.00 0.00 0.00 0.00 0.00 0.00
0.00 0.00 0.00 0.00 0.00 0.00 0.00 0.00 0.00 0.00 0.00 0.00 0.00 0.00 0.00 0.00 0.00 0.00 0.00 0.00 0.00 0.00 0.00 0.00 0.00 0.00 0.00 0.00 0.00 0.00 0.00 0.00
0.00 0.00 0.00 0.00 0.00 0.00 0.00 0.00 0.00 0.00 0.00 0.00 0.00 0.00 0.00 0.00 0.00 0.00 0.00 0.00 0.00 0.00 0.00 0.00 0.00 0.00 0.00 0.00 0.00 0.00 0.00 0.00
0.00 0.00 0.00 0.00 0.00 0.00 0.00 0.00 0.00 0.00 0.00 0.00 0.00 0.00 0.00 0.00 0.00 0.00 0.00 0.00 0.00 0.00 0.00 0.00 0.00 0.00 0.00 0.00 0.00 0.00 0.00 0.00
0.00 0.00 0.00 0.00 0.00 0.00 0.00 0.00 0.00 0.00 0.00 0.00 0.00 0.00 0.00 0.00 0.00 0.00 0.00 0.00 0.00 0.00 0.00 0.00 0.00 0.00 0.00 0.00 0.00 0.00 0.00 0.00
0.00 0.00 0.00 0.00 0.00 0.00 0.00 0.00 0.00 0.00 0.00 0.00 0.00 0.00 0.00 0.00 0.00 0.00 0.00 0.00 0.00 0.00 0.00 0.00 0.00 0.00 0.00 0.00 0.00 0.00 0.00 0.00
0.00 0.00 0.00 0.00 0.00 0.00 0.00 0.00 0.00 0.00 0.00 0.00 0.00 0.00 0.00 0.00 0.00 0.00 0.00 0.00 0.00 0.00 0.00 0.00 0.00 0.00 0.00 0.00 0.00 0.00 0.00 0.00
0.00 0.00 0.00 0.00 0.00 0.00 0.00 0.00 0.00 0.00 0.00 0.00 0.00 0.00 0.00 0.00 0.00 0.00 0.00 0.00 0.00 0.00 0.00 0.00 0.00 0.00 0.00 0.00 0.00 0.00 0.00 0.00
0.00 0.00 0.00 0.00 0.00 0.00 0.00 0.00 0.00 0.00 0.00 0.00 0.00 0.00 0.00 0.00 0.00 0.00 0.00 0.00 0.00 0.00 0.00 0.00 0.00 0.00 0.00 0.00 0.00 0.00 0.00 0.00
0.01 0.01 0.02 0.02 0.02 0.01 0.01 0.01 0.00 0.00 0.00 0.00 0.00 0.00 0.00 0.00 0.00 0.00 0.00 0.00 0.00 0.00 0.00 0.00 0.00 0.00 0.00 0.00 0.00 0.00 0.00 0.00
MSLP
1006.70 1007.69 1008.57 1009.75 1010.90 1011.88 1012.77 1013.70 1014.61 1015.42 1016.19 1016.77 1017.83 1018.33 1019.00 1019.95 1020.57 1020.86 1021.14 1021.26 1021.15 1021.21 1021.07 1021.02 1020.97 1021.17 1021.38 1021.22 1021.36 1021.28 1021.21 1020.98
1006.36 1007.44 1008.48 1009.57 1010.63 1011.43 1012.15 1013.13 1014.22 1015.00 1016.02 1016.97 1017.92 1018.78 1019.49 1020.24 1020.68 1021.09 1021.28 1021.26 1021.34 1021.23 1021.07 1021.06 1021.21 1021.54 1021.53 1021.59 1021.62 1021.74 1021.47 1021.17
1006.17 1007.21 1008.07 1008.75 1009.75 1011.00 1011.98 1012.83 1013.84 1014.55 1015.39 1016.36 1017.30 1018.49 1019.50 1020.14 1020.71 1021.10 1021.25 1021.33 1021.35 1021.30 1021.27 1021.48 1021.46 1021.74 1021.96 1021.96 1022.07 1022.16 1022.24 1021.94
1005.32 1006.45 1007.23 1008.23 1009.18 1010.26 1011.34 1012.17 1012.97 1014.01 1014.82 1015.96 1017.41 1018.56 1019.74 1020.56 1020.91 1021.09 1021.23 1021.29 1021.39 1021.48 1021.64 1021.72 1021.78 1021.71 1022.08 1022.25 1022.48 1022.74 1022.97 1022.71
1004.25 1005.60 1006.72 1007.45 1008.81 1010.12 1010.93 1011.67 1012.49 1013.72 1014.62 1015.82 1016.90 1017.82 1019.14 1020.19 1020.77 1021.12 1021.47 1021.40 1021.57 1021.81 1021.86 1021.86 1021.67 1021.79 1022.07 1022.26 1022.51 1022.76 1023.01 1023.33
1003.82 1005.03 1005.43 1006.73 1007.78 1008.91 1010.50 1011.36 1012.10 1013.18 1014.05 1014.95 1015.99 1017.20 1018.30 1019.31 1020.34 1020.98 1021.24 1021.50 1021.66 1021.80 1021.78 1021.94 1022.00 1022.17 1022.11 1022.29 1022.60 1022.94 1023.15 1023.10
1002.03 1003.70 1005.44 1006.41 1007.67 1008.82 1010.21 1011.43 1012.15 1012.87 1013.89 1014.70 1015.40 1016.38 1017.75 1019.11 1020.32 1021.10 1021.55 1021.81 1021.94 1021.89 1022.08 1022.22 1022.16 1022.17 1022.29 1022.58 1022.97 1023.50 1023.33 1023.68
1001.60 1003.47 1005.14 1006.71 1007.70 1008.69 1009.55 1010.87 1012.17 1012.92 1013.82 1014.57 1015.38 1016.30 1017.09 1018.40 1019.40 1020.18 1020.96 1021.76 1022.00 1022.25 1022.18 1022.53 1022.40 1022.34 1022.38 1022.86 1023.14 1023.57 1023.91 1024.31
1001.85 1003.56 1004.27 1005.69 1007.23 1008.56 1009.67 1010.78 1011.94 1012.71 1013.44 1014.46 1015.19 1015.87 1016.83 1017.87 1018.87 1019.90 1020.65 1021.32 1021.93 1022.23 1022.39 1022.51 1022.61 1022.39 1022.85 1023.10 1023.57 1023.92 1024.67 1024.77
1003.23 1004.75 1005.42 1005.99 1006.65 1007.31 1008.64 1010.33 1011.39 1012.49 1013.29 1014.21 1015.25 1015.87 1016.77 1017.68 1018.68 1019.47 1020.33 1020.89 1021.64 1022.36 1022.53 1022.80 1022.84 1022.97 1023.37 1023.47 1023.96 1024.22 1025.19 1025.43
1003.65 1004.74 1005.99 1006.91 1007.66 1008.66 1009.44 1010.41 1011.39 1012.50 1013.38 1014.29 1015.33 1016.00 1017.15 1017.87 1018.69 1019.71 1020.31 1020.78 1021.58 1022.45 1022.89 1022.89 1023.11 1023.49 1023.92 1023.94 1024.31 1024.69 1025.35 1025.83
1003.82 1004.70 1005.67 1006.83 1007.62 1008.09 1009.25 1010.24 1011.15 1012.48 1013.44 1014.22 1015.42 1016.12 1017.00 1018.18 1018.73 1019.59 1020.50 1020.90 1021.80 1022.33 1022.55 1022.84 1023.22 1023.58 1023.81 1024.37 1024.71 1025.12 1025.63 1025.96
1003.95 1004.54 1005.22 1006.32 1007.51 1008.31 1009.28 1010.09 1011.11 1011.96 1013.07 1013.72 1014.77 1015.97 1016.85 1018.15 1018.78 1019.59 1020.54 1021.44 1021.89 1022.31 1022.91 1023.36 1023.55 1023.86 1024.30 1024.80 1025.16 1025.67 1025.81 1026.02
1005.10 1005.49 1005.77 1006.19 1007.32 1008.25 1009.07 1009.78 1010.74 1011.85 1013.04 1013.94 1014.95 1015.89 1016.64 1017.99 1018.82 1019.97 1020.84 1021.40 1021.61 1022.49 1023.34 1023.62 1023.79 1024.25 1024.69 1025.33 1025.69 1025.71 1026.37 1026.21
1004.62 1005.16 1005.93 1006.56 1007.30 1008.04 1008.79 1009.79 1010.47 1011.48 1012.60 1013.85 1015.36 1016.05 1016.82 1017.40 1018.39 1020.38 1020.92 1021.30 1021.51 1022.58 1023.47 1023.78 1024.13 1024.53 1024.86 1025.40 1025.70 1025.90 1026.57 1026.73
1004.51 1004.90 1004.98 1005.50 1006.57 1007.59 1008.50 1009.41 1010.36 1011.42 1012.40 1013.05 1014.49 1016.01 1016.99 1017.88 1018.90 1020.43 1021.18 1021.45 1021.84 1022.65 1023.40 1023.70 1024.43 1024.77 1024.88 1025.14 1025.70 1026.19 1026.44 1027.06
1002.64 1003.18 1004.21 1004.79 1005.62 1006.40 1007.69 1008.82 1009.74 1011.02 1011.84 1013.19 1014.58 1015.48 1016.48 1018.07 1019.53 1020.30 1021.41 1021.50 1022.23 1022.96 1023.77 1023.93 1024.37 1024.79 1024.59 1024.92 1025.45 1026.16 1026.80 1027.40
1001.81 1002.48 1003.15 1003.42 1004.00 1004.95 1006.41 1007.76 1009.19 1010.45 1011.81 1013.06 1014.21 1015.55 1016.88 1018.14 1019.25 1020.43 1021.33 1021.96 1022.53 1023.07 1023.76 1024.13 1024.53 1024.47 1024.52 1024.86 1025.52 1026.32 1026.89 1027.46
1001.50 1001.43 1002.00 1003.03 1004.29 1005.16 1006.48 1007.70 1008.69 1009.68 1011.31 1012.47 1013.74 1014.84 1016.74 1017.89 1018.88 1019.76 1020.84 1021.83 1022.87 1022.87 1023.55 1024.08 1024.54 1024.21 1024.44 1024.74 1025.06 1026.15 1027.06 1027.46
Thickness
5694 5687 5681 5672 5663 5653 5645 5637 5629 5622 5615 5612 5603 5596 5587 5577 5571 5568 5564 5560 5558 5556 5555 5553 5550 5546 5541 5539 5535 5530 5525 5521
5687 5680 5674 5666 5657 5648 5641 5631 5621 5615 5607 5600 5592 5582 5573 5566 5562 5557 5553 5551 5547 5546 5545 5542 5538 5532 5528 5524 5521 5516 5512 5508
5678 5672 5668 5664 5654 5642 5632 5625 5615 5610 5603 5595 5586 5575 5565 5559 5552 5547 5543 5540 5536 5534 5533 5528 5526 5519 5513 5509 5503 5501 5496 5491
5675 5667 5664 5658 5649 5637 5625 5617 5611 5603 5597 5586 5574 5564 5555 5546 5541 5537 5533 5529 5525 5522 5518 5515 5511 5508 5500 5493 5488 5482 5477 5475
5671 5662 5656 5654 5641 5626 5619 5610 5604 5595 5587 5577 5569 5562 5550 5536 5529 5524 5518 5516 5512 5507 5505 5501 5500 5495 5489 5483 5478 5471 5465 5458
5663 5656 5656 5649 5638 5627 5612 5604 5598 5589 5583 5575 5566 5555 5544 5534 5523 5515 5510 5506 5501 5497 5495 5491 5487 5482 5479 5474 5467 5459 5453 5451
5674 5660 5645 5641 5627 5617 5606 5595 5589 5577 5573 5567 5561 5551 5537 5525 5512 5503 5495 5490 5487 5485 5481 5478 5474 5470 5467 5461 5453 5445 5441 5436
5663 5650 5637 5623 5615 5608 5600 5590 5577 5568 5561 5556 5549 5541 5533 5520 5509 5499 5490 5481 5476 5472 5469 5465 5462 5459 5457 5449 5442 5434 5427 5420
5646 5635 5633 5621 5609 5598 5587 5577 5564 5556 5551 5544 5540 5534 5524 5514 5502 5491 5481 5473 5466 5461 5458 5456 5452 5449 5444 5437 5429 5423 5412 5407
5623 5616 5613 5609 5602 5597 5583 5567 5556 5546 5540 5534 5525 5519 5512 5503 5493 5485 5475 5467 5459 5452 5448 5445 5441 5436 5430 5426 5417 5411 5400 5393
5609 5603 5594 5590 5577 5568 5562 5553 5543 5532 5527 5520 5511 5506 5497 5489 5482 5472 5466 5459 5451 5442 5437 5436 5430 5424 5416 5413 5406 5399 5391 5383
5595 5592 5587 5579 5566 5564 5553 5546 5535 5521 5513 5509 5499 5493 5485 5475 5470 5463 5455 5448 5440 5435 5431 5427 5421 5415 5409 5401 5395 5389 5381 5374
5585 5580 5576 5565 5555 5548 5539 5531 5520 5512 5504 5502 5493 5484 5476 5464 5459 5452 5443 5432 5428 5425 5419 5413 5408 5403 5396 5389 5384 5376 5372 5367
5559 5559 5557 5552 5540 5531 5525 5520 5512 5502 5494 5488 5480 5473 5467 5455 5447 5437 5429 5423 5421 5414 5405 5401 5397 5390 5384 5377 5371 5368 5359 5358
5546 5538 5537 5537 5532 5522 5518 5510 5505 5496 5488 5479 5467 5462 5456 5451 5441 5421 5418 5415 5413 5404 5395 5391 5385 5378 5374 5368 5363 5359 5350 5346
5531 5528 5528 5528 5523 5516 5508 5501 5494 5485 5479 5477 5465 5453 5444 5437 5425 5410 5405 5404 5400 5393 5386 5383 5373 5368 5365 5361 5355 5347 5343 5335
5539 5533 5521 5514 5512 5508 5496 5489 5485 5476 5473 5462 5451 5445 5437 5425 5409 5401 5394 5394 5387 5381 5373 5370 5363 5359 5358 5353 5348 5339 5330 5322
5529 5521 5513 5511 5507 5501 5491 5483 5474 5467 5458 5449 5441 5432 5422 5413 5402 5388 5385 5379 5374 5372 5365 5359 5353 5352 5349 5343 5337 5330 5320 5312
5511 5512 5505 5499 5491 5484 5475 5467 5463 5458 5447 5440 5433 5426 5412 5400 5392 5385 5378 5369 5361 5363 5357 5350 5345 5346 5341 5336 5331 5321 5311 5304